TimeEDT,TemperatureF,Dew PointF,Humidity,Sea Level PressureIn,VisibilityMPH,Wind Direction,Wind SpeedMPH,Gust SpeedMPH,PrecipitationIn,Events,Conditions,WindDirDegrees,DateUTC
12:15 AM,55.4,53.6,94,30.06,4.0,ENE,5.8,-,N/A,,Overcast,70,2012-10-10 04:15:00
12:35 AM,55.4,53.6,94,30.05,5.0,NE,3.5,-,N/A,,Overcast,50,2012-10-10 04:35:00
12:55 AM,55.4,53.6,94,30.05,5.0,Calm,Calm,-,N/A,,Overcast,0,2012-10-10 04:55:00
1:15 AM,55.4,53.6,94,30.05,5.0,Calm,Calm,-,N/A,,Overcast,0,2012-10-10 05:15:00
1:35 AM,55.4,53.6,94,30.05,5.0,Calm,Calm,-,N/A,,Overcast,0,2012-10-10 05:35:00
1:55 AM,55.4,53.6,94,30.04,4.0,Calm,Calm,-,N/A,,Overcast,0,2012-10-10 05:55:00
2:15 AM,55.4,53.6,94,30.03,4.0,Calm,Calm,-,N/A,,Overcast,0,2012-10-10 06:15:00
2:35 AM,55.4,53.6,94,30.01,4.0,ENE,4.6,-,N/A,,Overcast,60,2012-10-10 06:35:00
2:55 AM,55.4,53.6,94,30.01,4.0,NE,3.5,-,N/A,,Overcast,40,2012-10-10 06:55:00
3:15 AM,55.4,53.6,94,30.00,4.0,ENE,3.5,-,N/A,,Overcast,60,2012-10-10 07:15:00
3:35 AM,55.4,53.6,94,29.99,3.0,Calm,Calm,-,N/A,,Overcast,0,2012-10-10 07:35:00
3:55 AM,55.4,53.6,94,29.99,3.0,Calm,Calm,-,N/A,,Overcast,0,2012-10-10 07:55:00
4:15 AM,55.4,53.6,94,29.99,3.0,Calm,Calm,-,N/A,,Overcast,0,2012-10-10 08:15:00
4:35 AM,55.4,53.6,94,29.98,2.5,NE,4.6,-,N/A,,Overcast,40,2012-10-10 08:35:00
4:55 AM,55.4,53.6,94,29.98,2.5,Calm,Calm,-,N/A,,Overcast,0,2012-10-10 08:55:00
5:15 AM,55.4,53.6,94,29.97,2.5,Calm,Calm,-,N/A,,Overcast,0,2012-10-10 09:15:00
5:35 AM,55.4,53.6,94,29.96,3.0,ENE,3.5,-,N/A,,Overcast,60,2012-10-10 09:35:00
5:55 AM,55.4,53.6,94,29.96,4.0,Calm,Calm,-,N/A,,Overcast,0,2012-10-10 09:55:00
6:15 AM,55.4,53.6,94,29.96,4.0,Calm,Calm,-,N/A,,Overcast,0,2012-10-10 10:15:00
6:35 AM,55.4,55.4,100,29.96,3.0,Calm,Calm,-,N/A,,Overcast,0,2012-10-10 10:35:00
6:55 AM,55.4,55.4,100,29.96,5.0,Calm,Calm,-,N/A,,Overcast,0,2012-10-10 10:55:00
7:15 AM,55.4,55.4,100,29.97,4.0,Calm,Calm,-,N/A,,Overcast,0,2012-10-10 11:15:00
7:35 AM,57.2,55.4,94,29.96,1.2,Calm,Calm,-,N/A,,Overcast,0,2012-10-10 11:35:00
7:55 AM,57.2,55.4,94,29.97,1.0,WSW,3.5,-,N/A,,Overcast,250,2012-10-10 11:55:00
8:15 AM,57.2,55.4,94,29.97,0.5,Calm,Calm,-,N/A,,Overcast,0,2012-10-10 12:15:00
8:35 AM,57.2,55.4,94,29.96,0.8,Calm,Calm,-,0.01,,Overcast,0,2012-10-10 12:35:00
8:55 AM,57.2,55.4,94,29.96,1.2,Calm,Calm,-,0.01,,Overcast,0,2012-10-10 12:55:00
9:35 AM,59.0,55.4,88,29.95,2.0,Calm,Calm,-,N/A,,Overcast,0,2012-10-10 13:35:00
9:55 AM,59.0,57.2,94,29.95,3.0,Calm,Calm,-,N/A,,Overcast,0,2012-10-10 13:55:00
10:15 AM,59.0,57.2,94,29.94,7.0,WSW,3.5,-,N/A,,Overcast,250,2012-10-10 14:15:00
10:35 AM,60.8,57.2,88,29.94,7.0,SW,4.6,-,N/A,,Overcast,230,2012-10-10 14:35:00
10:55 AM,60.8,57.2,88,29.93,10.0,WSW,5.8,-,N/A,,Overcast,250,2012-10-10 14:55:00
11:15 AM,62.6,57.2,82,29.93,10.0,WSW,4.6,-,N/A,,Overcast,250,2012-10-10 15:15:00
11:35 AM,62.6,55.4,77,29.92,10.0,WSW,5.8,-,N/A,,Overcast,250,2012-10-10 15:35:00
11:55 AM,62.6,55.4,77,29.92,10.0,West,8.1,-,N/A,,Overcast,270,2012-10-10 15:55:00
12:15 PM,64.4,53.6,68,29.91,10.0,West,6.9,-,N/A,,Mostly Cloudy,280,2012-10-10 16:15:00
12:55 PM,64.4,51.8,64,29.90,10.0,West,10.4,-,N/A,,Mostly Cloudy,270,2012-10-10 16:55:00
1:15 PM,64.4,51.8,64,29.88,10.0,WSW,8.1,-,N/A,,Mostly Cloudy,240,2012-10-10 17:15:00
1:55 PM,66.2,50.0,56,29.86,10.0,West,11.5,-,N/A,,Scattered Clouds,260,2012-10-10 17:55:00
2:15 PM,68.0,51.8,56,29.86,10.0,West,8.1,-,N/A,,Scattered Clouds,260,2012-10-10 18:15:00
2:35 PM,66.2,50.0,56,29.85,10.0,West,9.2,-,N/A,,Scattered Clouds,260,2012-10-10 18:35:00
2:55 PM,68.0,46.4,46,29.85,10.0,WSW,10.4,16.1,N/A,,Scattered Clouds,250,2012-10-10 18:55:00
3:15 PM,68.0,46.4,46,29.85,10.0,WSW,9.2,-,N/A,,Scattered Clouds,240,2012-10-10 19:15:00
3:35 PM,68.0,44.6,43,29.84,10.0,West,11.5,19.6,N/A,,Scattered Clouds,260,2012-10-10 19:35:00
3:55 PM,66.2,46.4,49,29.84,10.0,WSW,9.2,-,N/A,,Scattered Clouds,250,2012-10-10 19:55:00
4:15 PM,68.0,44.6,43,29.84,10.0,West,11.5,18.4,N/A,,Clear,270,2012-10-10 20:15:00
4:35 PM,64.4,44.6,49,29.84,10.0,West,5.8,16.1,N/A,,Clear,280,2012-10-10 20:35:00
4:55 PM,64.4,42.8,45,29.84,10.0,West,6.9,-,N/A,,Clear,280,2012-10-10 20:55:00
5:15 PM,64.4,42.8,45,29.84,10.0,WSW,3.5,-,N/A,,Scattered Clouds,250,2012-10-10 21:15:00
5:35 PM,62.6,42.8,48,29.85,10.0,West,4.6,-,N/A,,Scattered Clouds,270,2012-10-10 21:35:00
5:55 PM,62.6,44.6,52,29.85,10.0,West,6.9,-,N/A,,Clear,270,2012-10-10 21:55:00
6:15 PM,60.8,44.6,55,29.85,10.0,Calm,Calm,-,N/A,,Clear,0,2012-10-10 22:15:00
6:35 PM,60.8,44.6,55,29.86,10.0,Calm,Calm,-,N/A,,Scattered Clouds,0,2012-10-10 22:35:00
6:55 PM,60.8,44.6,55,29.86,10.0,WSW,3.5,-,N/A,,Mostly Cloudy,250,2012-10-10 22:55:00
7:15 PM,60.8,46.4,59,29.87,10.0,Calm,Calm,-,N/A,,Mostly Cloudy,0,2012-10-10 23:15:00
7:35 PM,59.0,50.0,72,29.88,10.0,Calm,Calm,-,N/A,,Overcast,0,2012-10-10 23:35:00
7:55 PM,60.8,46.4,59,29.88,10.0,Calm,Calm,-,N/A,,Overcast,0,2012-10-10 23:55:00
8:15 PM,60.8,46.4,59,29.90,10.0,West,6.9,-,N/A,,Overcast,280,2012-10-11 00:15:00
8:35 PM,60.8,46.4,59,29.92,10.0,WNW,12.7,21.9,N/A,,Mostly Cloudy,290,2012-10-11 00:35:00
8:55 PM,60.8,44.6,55,29.93,10.0,WNW,3.5,-,N/A,,Mostly Cloudy,300,2012-10-11 00:55:00
9:15 PM,59.0,41.0,51,29.95,10.0,West,8.1,23.0,N/A,,Overcast,280,2012-10-11 01:15:00
9:35 PM,57.2,41.0,55,29.96,10.0,West,11.5,18.4,N/A,,Scattered Clouds,280,2012-10-11 01:35:00
9:55 PM,57.2,41.0,55,29.97,10.0,WNW,10.4,20.7,N/A,,Clear,290,2012-10-11 01:55:00
10:15 PM,55.4,41.0,58,29.98,10.0,WNW,5.8,19.6,N/A,,Clear,290,2012-10-11 02:15:00
10:35 PM,55.4,41.0,58,29.99,10.0,WNW,9.2,-,N/A,,Clear,300,2012-10-11 02:35:00
10:55 PM,53.6,41.0,62,30.00,10.0,WNW,8.1,-,N/A,,Scattered Clouds,290,2012-10-11 02:55:00
11:15 PM,53.6,39.2,58,30.01,10.0,WNW,10.4,-,N/A,,Scattered Clouds,300,2012-10-11 03:15:00
11:35 PM,53.6,39.2,58,30.01,10.0,WNW,4.6,-,N/A,,Clear,290,2012-10-11 03:35:00
11:55 PM,51.8,39.2,62,30.03,10.0,WNW,3.5,-,N/A,,Clear,300,2012-10-11 03:55:00